Location: Dal�� Lhota
(48.7500°N, 14.0167°E)
Time: 03:26:44
(UTC+00:00)

Transit 2A - Pass Details

Date: 29 July 2021
Orbit: 594 x 964 km, 66.7° (Epoch: 21 September)

Event Time Altitude Azimuth Distance (km) Brightness Sun altitude
Rises 05:13:53 0° 178° (S) 2,825 8.8 14.5°
Reaches altitude 10° 05:16:23 10° 164° (SSE) 1,944 8.2 14.9°
Maximum altitude 05:19:52 24° 111° (ESE) 1,294 8.4 15.5°
Drops below altitude 10° 05:23:33 10° 57° (ENE) 2,055 9.8 16.1°
Sets 05:26:16 0° 44° (NE) 3,027 10.0 16.5°
